Weather History for Alamosa, CO

Change the Weather History Date:

Thursday, February 14, 2013

  Actual Average Record
Temperature  
Mean Temperature 21 °F 22 °F  
Max Temperature 40 °F 40 °F 61 °F (1957)
Min Temperature 2 °F 5 °F -26 °F (1963)
Degree Days  
Heating Degree Days 44 43  
Month to date heating degree days 595 627  
Since 1 July heating degree days 6154 5774  
Cooling Degree Days 0 0  
Month to date cooling degree days 0 0  
Year to date cooling degree days 0 0  
Moisture  
Dew Point 7 °F    
Average Humidity 57    
Maximum Humidity 87    
Minimum Humidity 27    
Precipitation  
Precipitation 0.00 in 0.01 in 0.19 in (2002)
Month to date precipitation T 0.12  
Year to date precipitation 0.07 0.38  
Snow  
Snow 0.00 in 0.20 in 2.80 in (2002)
Month to date snowfall T 2.0  
Since 1 July snowfall 13.1 16.3  
Snow Depth 0.00 in    
Sea Level Pressure  
Sea Level Pressure 30.20 in    
Wind  
Wind Speed 7 mph (WNW)    
Max Wind Speed 22 mph    
Max Gust Speed 26 mph    
Visibility 10 miles    
Events      
T = Trace of Precipitation, MM = Missing Value Source: NWS Daily Summary

Daily Weather History Graph

Daily Weather History Graph

Search for Another Location

Airport:

Trip Planner

Search our weather history database for the weather conditions in past years. The results will help you decide how hot, cold, wet, or windy it might be!

Date:

Astronomy

Feb. 14, 2013 Rise Set
Actual Time 6:53 AM MST 5:42 PM MST
Civil Twilight 6:26 AM MST 6:09 PM MST
Nautical Twilight 5:56 AM MST 6:39 PM MST
Astronomical Twilight 5:25 AM MST 7:10 PM MST
Moon 9:03 AM MST (2/14) 10:40 PM MST (2/14)
Length of Visible Light 11h 42m
Length of Day
10h 48m
Waxing Crescent, 22% of the Moon is Illuminated
Feb 14
Waxing Crescent
Feb 17
First Quarter
Feb 25
Full
Mar 4
Last Quarter
Mar 11
New

Hourly Weather History & Observations

Time (MST) Temp. Windchill Dew Point Humidity Pressure Visibility Wind Dir Wind Speed Gust Speed Precip Events Conditions
12:52 AM 10.4 °F 2.2 °F 6.8 °F 85% 30.07 in 10.0 mi WSW 4.6 mph - N/A   Clear
1:52 AM 9.0 °F -0.9 °F 5.0 °F 84% 30.19 in 10.0 mi WSW 5.8 mph - N/A   Clear
2:52 AM 5.0 °F - 1.0 °F 84% 30.19 in 10.0 mi Calm Calm - N/A   Clear
3:52 AM 8.1 °F -3.2 °F 3.0 °F 80% 30.14 in 10.0 mi West 6.9 mph - N/A   Clear
4:52 AM 9.0 °F 2.4 °F 3.0 °F 77% 30.14 in 10.0 mi NW 3.5 mph - N/A   Clear
5:52 AM 6.1 °F -6.8 °F 1.0 °F 80% 30.21 in 10.0 mi West 8.1 mph - N/A   Clear
6:52 AM 1.9 °F -10.6 °F -2.9 °F 80% 30.29 in 10.0 mi SW 6.9 mph - N/A   Clear
7:52 AM 8.1 °F -0.5 °F 3.9 °F 83% 30.29 in 10.0 mi WSW 4.6 mph - N/A   Clear
8:52 AM 15.8 °F 8.6 °F 8.6 °F 73% 30.09 in 10.0 mi SE 4.6 mph - N/A   Clear
9:52 AM 21.9 °F - 10.9 °F 63% 30.25 in 10.0 mi Calm Calm - N/A   Clear
10:52 AM 30.0 °F 26.5 °F 12.0 °F 47% 30.22 in 10.0 mi Variable 3.5 mph - N/A   Clear
11:52 AM 34.0 °F 31.0 °F 12.0 °F 40% 30.18 in 10.0 mi Variable 3.5 mph - N/A   Clear
12:52 PM 37.0 °F 29.8 °F 12.9 °F 37% 30.16 in 10.0 mi North 10.4 mph - N/A   Clear
1:52 PM 37.9 °F 33.5 °F 12.0 °F 35% 30.15 in 10.0 mi NNW 5.8 mph 18.4 mph N/A   Clear
2:52 PM 37.9 °F 27.9 °F 8.1 °F 29% 30.17 in 10.0 mi NW 19.6 mph 24.2 mph N/A   Partly Cloudy
3:52 PM 37.9 °F 28.9 °F 7.0 °F 28% 30.17 in 10.0 mi NNW 16.1 mph 23.0 mph N/A   Clear
4:52 PM 37.0 °F 30.4 °F 7.0 °F 29% 30.19 in 10.0 mi NW 9.2 mph - N/A   Clear
5:52 PM 28.9 °F 21.9 °F 12.0 °F 49% 30.25 in 10.0 mi WNW 6.9 mph - N/A   Clear
6:52 PM 28.9 °F 20.4 °F 10.0 °F 45% 30.29 in 10.0 mi NNW 9.2 mph - N/A   Clear
7:52 PM 25.0 °F 17.1 °F 10.0 °F 53% 30.30 in 10.0 mi WNW 6.9 mph - N/A   Clear
8:52 PM 24.8 °F 13.4 °F 10.4 °F 54% 30.15 in 10.0 mi North 12.7 mph - N/A   Clear
9:52 PM 21.0 °F - 9.0 °F 60% 30.29 in 10.0 mi Calm Calm - N/A   Clear
10:52 PM 19.0 °F 8.2 °F 9.0 °F 65% 30.25 in 10.0 mi North 9.2 mph - N/A   Clear
11:52 PM 12.9 °F 3.8 °F 6.1 °F 74% 30.27 in 10.0 mi SSW 5.8 mph - N/A   Clear